This is the latest recevied weather packets stored in our database for station/object KC9DRE. If no packets are shown the sender has not sent any weather packets the latest 10 day(s).
| Time | Temp. | Humidity | Pressure | Rain* | Wind** | Luminosity | Snow |
|---|---|---|---|---|---|---|---|
| 1777658871 | 16.67° C | 49% | 1015.9 hPa | 0 mm | - | 940 W/m² | - |
| 1777658567 | 17.22° C | 45% | 1015.9 hPa | 0 mm | - | 734 W/m² | - |
| 1777658264 | 16.11° C | 46% | 1015.8 hPa | 0 mm | - | 1061 W/m² | - |
| 1777657961 | 15.56° C | 45% | 1015.8 hPa | 0 mm | - | 1004 W/m² | - |
| 1777657657 | 15° C | 46% | 1015.7 hPa | 0 mm | - | 278 W/m² | - |
| 1777657355 | 15° C | 46% | 1015.7 hPa | 0 mm | - | 352 W/m² | - |
| 1777657053 | 15° C | 48% | 1015.8 hPa | 0 mm | - | 899 W/m² | - |
| 1777656750 | 15.56° C | 47% | 1015.9 hPa | 0 mm | - | 276 W/m² | - |
| 1777656445 | 16.11° C | 43% | 1015.8 hPa | 0 mm | - | 945 W/m² | - |
| 1777656140 | 16.11° C | 43% | 1015.6 hPa | 0 mm | - | 486 W/m² | - |
| 1777655837 | 16.11° C | 44% | 1015.6 hPa | 0 mm | - | 969 W/m² | - |
| 1777655534 | 15.56° C | 52% | 1015.6 hPa | 0 mm | - | 895 W/m² | - |
| 1777655231 | 15° C | 49% | 1015.9 hPa | 0 mm | - | 891 W/m² | - |
| 1777654927 | 14.44° C | 50% | 1016.1 hPa | 0 mm | - | 340 W/m² | - |
| 1777654625 | 15° C | 47% | 1016.1 hPa | 0 mm | - | 319 W/m² | - |
| 1777654322 | 15.56° C | 50% | 1015.9 hPa | 0 mm | - | 443 W/m² | - |
| 1777654020 | 14.44° C | 52% | 1015.7 hPa | 0 mm | - | 758 W/m² | - |
| 1777653717 | 13.89° C | 55% | 1015.7 hPa | 0 mm | - | 893 W/m² | - |
| 1777653413 | 15° C | 50% | 1015.5 hPa | 0 mm | - | 229 W/m² | - |
| 1777653110 | 15.56° C | 50% | 1015.5 hPa | 0 mm | - | 199 W/m² | - |
| 1777652806 | 16.11° C | 52% | 1015.4 hPa | 0 mm | - | 233 W/m² | - |
| 1777652503 | 15.56° C | 54% | 1015.3 hPa | 0 mm | - | 909 W/m² | - |
| 1777652200 | 15° C | 54% | 1015.4 hPa | 0 mm | - | 840 W/m² | - |
| 1777651897 | 13.89° C | 55% | 1015.6 hPa | 0 mm | - | 909 W/m² | - |
| 1777651594 | 14.44° C | 53% | 1015.4 hPa | 0 mm | - | 171 W/m² | - |
* Rain latest hour (hover to see other rain measurements)
** Current wind speed in m/s (hover to see current wind gust speed)